site,time,unit,value
Clipstone 11Kv,10/11/2023 00:00:00,MW,1.47866215
Clipstone 11Kv,10/11/2023 00:05:00,MW,1.4740967500000002
Clipstone 11Kv,10/11/2023 00:10:00,MW,1.485403
Clipstone 11Kv,10/11/2023 00:15:00,MW,1.477154
Clipstone 11Kv,10/11/2023 00:20:00,MW,1.4599077999999999
Clipstone 11Kv,10/11/2023 00:25:00,MW,1.46651416
Clipstone 11Kv,10/11/2023 00:30:00,MW,1.50886607
Clipstone 11Kv,10/11/2023 00:35:00,MW,1.5155171200000002
Clipstone 11Kv,10/11/2023 00:40:00,MW,1.48703445
Clipstone 11Kv,10/11/2023 00:45:00,MW,1.4886378
Clipstone 11Kv,10/11/2023 00:50:00,MW,1.47268764
Clipstone 11Kv,10/11/2023 00:55:00,MW,1.47048643
Clipstone 11Kv,10/11/2023 01:00:00,MW,1.46508176
Clipstone 11Kv,10/11/2023 01:05:00,MW,1.45760634
Clipstone 11Kv,10/11/2023 01:10:00,MW,1.48693974
Clipstone 11Kv,10/11/2023 01:15:00,MW,1.439825
Clipstone 11Kv,10/11/2023 01:20:00,MW,1.40978653
Clipstone 11Kv,10/11/2023 01:25:00,MW,1.40529816
Clipstone 11Kv,10/11/2023 01:30:00,MW,1.4384233499999999
Clipstone 11Kv,10/11/2023 01:35:00,MW,1.4268934500000001
Clipstone 11Kv,10/11/2023 01:40:00,MW,1.41630084
Clipstone 11Kv,10/11/2023 01:45:00,MW,1.40877226
Clipstone 11Kv,10/11/2023 01:50:00,MW,1.3918279
Clipstone 11Kv,10/11/2023 01:55:00,MW,1.4005239999999999
Clipstone 11Kv,10/11/2023 02:00:00,MW,1.4183445
Clipstone 11Kv,10/11/2023 02:05:00,MW,1.38381945
Clipstone 11Kv,10/11/2023 02:10:00,MW,1.3692841
Clipstone 11Kv,10/11/2023 02:15:00,MW,1.35964236
Clipstone 11Kv,10/11/2023 02:20:00,MW,1.3894387
Clipstone 11Kv,10/11/2023 02:25:00,MW,1.36156854
Clipstone 11Kv,10/11/2023 02:30:00,MW,1.37043194
Clipstone 11Kv,10/11/2023 02:35:00,MW,1.3762151500000002
Clipstone 11Kv,10/11/2023 02:40:00,MW,1.3995912000000001
Clipstone 11Kv,10/11/2023 02:45:00,MW,1.4281138100000002
Clipstone 11Kv,10/11/2023 02:50:00,MW,1.4018812999999999
Clipstone 11Kv,10/11/2023 02:55:00,MW,1.37368657
Clipstone 11Kv,10/11/2023 03:00:00,MW,1.3687209500000002
Clipstone 11Kv,10/11/2023 03:05:00,MW,1.3594254700000001
Clipstone 11Kv,10/11/2023 03:10:00,MW,1.3349693
Clipstone 11Kv,10/11/2023 03:15:00,MW,1.3346489
Clipstone 11Kv,10/11/2023 03:20:00,MW,1.3461386000000002
Clipstone 11Kv,10/11/2023 03:25:00,MW,1.38180605
Clipstone 11Kv,10/11/2023 03:30:00,MW,1.37973839
Clipstone 11Kv,10/11/2023 03:35:00,MW,1.3468117999999998
Clipstone 11Kv,10/11/2023 03:40:00,MW,1.34255588
Clipstone 11Kv,10/11/2023 03:45:00,MW,1.3355298
Clipstone 11Kv,10/11/2023 03:50:00,MW,1.3259634999999999
Clipstone 11Kv,10/11/2023 03:55:00,MW,1.35447853
Clipstone 11Kv,10/11/2023 04:00:00,MW,1.33589613
Clipstone 11Kv,10/11/2023 04:05:00,MW,1.34166092
Clipstone 11Kv,10/11/2023 04:10:00,MW,1.34264596
Clipstone 11Kv,10/11/2023 04:15:00,MW,1.334428
Clipstone 11Kv,10/11/2023 04:20:00,MW,1.33541694
Clipstone 11Kv,10/11/2023 04:25:00,MW,1.30208973
Clipstone 11Kv,10/11/2023 04:30:00,MW,1.3233598
Clipstone 11Kv,10/11/2023 04:35:00,MW,1.34694556
Clipstone 11Kv,10/11/2023 04:40:00,MW,1.33737957
Clipstone 11Kv,10/11/2023 04:45:00,MW,1.34271766
Clipstone 11Kv,10/11/2023 04:50:00,MW,1.35095504
Clipstone 11Kv,10/11/2023 04:55:00,MW,1.3448169
Clipstone 11Kv,10/11/2023 05:00:00,MW,1.33456506
Clipstone 11Kv,10/11/2023 05:05:00,MW,1.34831827
Clipstone 11Kv,10/11/2023 05:10:00,MW,1.33852746
Clipstone 11Kv,10/11/2023 05:15:00,MW,1.34258414
Clipstone 11Kv,10/11/2023 05:20:00,MW,1.3118677600000002
Clipstone 11Kv,10/11/2023 05:25:00,MW,1.3164334
Clipstone 11Kv,10/11/2023 05:30:00,MW,1.3455968500000002
Clipstone 11Kv,10/11/2023 05:35:00,MW,1.3316457000000002
Clipstone 11Kv,10/11/2023 05:40:00,MW,1.3446980499999999
Clipstone 11Kv,10/11/2023 05:45:00,MW,1.3761256
Clipstone 11Kv,10/11/2023 05:50:00,MW,1.3886095
Clipstone 11Kv,10/11/2023 05:55:00,MW,1.40878276
Clipstone 11Kv,10/11/2023 06:00:00,MW,1.44345604
Clipstone 11Kv,10/11/2023 06:05:00,MW,1.5149674
Clipstone 11Kv,10/11/2023 06:10:00,MW,1.52931025
Clipstone 11Kv,10/11/2023 06:15:00,MW,1.51843336
Clipstone 11Kv,10/11/2023 06:20:00,MW,1.5403854
Clipstone 11Kv,10/11/2023 06:25:00,MW,1.6379389999999998
Clipstone 11Kv,10/11/2023 06:30:00,MW,1.6394261
Clipstone 11Kv,10/11/2023 06:35:00,MW,1.6650615
Clipstone 11Kv,10/11/2023 06:40:00,MW,1.71059634
Clipstone 11Kv,10/11/2023 06:45:00,MW,1.7389118
Clipstone 11Kv,10/11/2023 06:50:00,MW,1.7757027
Clipstone 11Kv,10/11/2023 06:55:00,MW,1.74930852
Clipstone 11Kv,10/11/2023 07:00:00,MW,1.7225310999999999
Clipstone 11Kv,10/11/2023 07:05:00,MW,1.81392979
Clipstone 11Kv,10/11/2023 07:10:00,MW,1.9407682
Clipstone 11Kv,10/11/2023 07:15:00,MW,1.96768887
Clipstone 11Kv,10/11/2023 07:20:00,MW,1.9459363299999999
Clipstone 11Kv,10/11/2023 07:25:00,MW,1.92748704
Clipstone 11Kv,10/11/2023 07:30:00,MW,1.9337645
Clipstone 11Kv,10/11/2023 07:35:00,MW,1.99394046
Clipstone 11Kv,10/11/2023 07:40:00,MW,2.0772841
Clipstone 11Kv,10/11/2023 07:45:00,MW,2.009932
Clipstone 11Kv,10/11/2023 07:50:00,MW,2.1502881
Clipstone 11Kv,10/11/2023 07:55:00,MW,2.0920935
Clipstone 11Kv,10/11/2023 08:00:00,MW,2.0541741
Clipstone 11Kv,10/11/2023 08:05:00,MW,2.0071336
Clipstone 11Kv,10/11/2023 08:10:00,MW,1.99945393
Clipstone 11Kv,10/11/2023 08:15:00,MW,2.0542358
Clipstone 11Kv,10/11/2023 08:20:00,MW,2.0159378
Clipstone 11Kv,10/11/2023 08:25:00,MW,2.0126738
Clipstone 11Kv,10/11/2023 08:30:00,MW,1.94745885
Clipstone 11Kv,10/11/2023 08:35:00,MW,1.9208032
Clipstone 11Kv,10/11/2023 08:40:00,MW,1.91167695
Clipstone 11Kv,10/11/2023 08:45:00,MW,1.9587794600000001
Clipstone 11Kv,10/11/2023 08:50:00,MW,1.9459693
Clipstone 11Kv,10/11/2023 08:55:00,MW,1.94997733
Clipstone 11Kv,10/11/2023 09:00:00,MW,1.9874306000000002
Clipstone 11Kv,10/11/2023 09:05:00,MW,1.9364252400000002
Clipstone 11Kv,10/11/2023 09:10:00,MW,1.7987833
Clipstone 11Kv,10/11/2023 09:15:00,MW,1.93896115
Clipstone 11Kv,10/11/2023 09:20:00,MW,1.88855803
Clipstone 11Kv,10/11/2023 09:25:00,MW,1.8818549
Clipstone 11Kv,10/11/2023 09:30:00,MW,1.8792886
Clipstone 11Kv,10/11/2023 09:35:00,MW,1.7493484499999998
Clipstone 11Kv,10/11/2023 09:40:00,MW,1.8669995
Clipstone 11Kv,10/11/2023 09:45:00,MW,1.85721529
Clipstone 11Kv,10/11/2023 09:50:00,MW,1.90864946
Clipstone 11Kv,10/11/2023 09:55:00,MW,1.8858617
Clipstone 11Kv,10/11/2023 10:00:00,MW,1.9681055500000002
Clipstone 11Kv,10/11/2023 10:05:00,MW,1.9347555399999998
Clipstone 11Kv,10/11/2023 10:10:00,MW,1.9647179700000001
Clipstone 11Kv,10/11/2023 10:15:00,MW,1.92723829
Clipstone 11Kv,10/11/2023 10:20:00,MW,1.9432627
Clipstone 11Kv,10/11/2023 10:25:00,MW,1.94455775
Clipstone 11Kv,10/11/2023 10:30:00,MW,1.91292956
Clipstone 11Kv,10/11/2023 10:35:00,MW,1.8757447
Clipstone 11Kv,10/11/2023 10:40:00,MW,1.83633705
Clipstone 11Kv,10/11/2023 10:45:00,MW,1.85611533
Clipstone 11Kv,10/11/2023 10:50:00,MW,1.9215957000000001
Clipstone 11Kv,10/11/2023 10:55:00,MW,1.9088633
Clipstone 11Kv,10/11/2023 11:00:00,MW,1.8410986
Clipstone 11Kv,10/11/2023 11:05:00,MW,1.9626215
Clipstone 11Kv,10/11/2023 11:10:00,MW,1.9762355
Clipstone 11Kv,10/11/2023 11:15:00,MW,1.9998027400000002
Clipstone 11Kv,10/11/2023 11:20:00,MW,1.95539503
Clipstone 11Kv,10/11/2023 11:25:00,MW,1.99970033
Clipstone 11Kv,10/11/2023 11:30:00,MW,2.0429152
Clipstone 11Kv,10/11/2023 11:35:00,MW,2.0255204
Clipstone 11Kv,10/11/2023 11:40:00,MW,1.9893931999999999
Clipstone 11Kv,10/11/2023 11:45:00,MW,1.9885045
Clipstone 11Kv,10/11/2023 11:50:00,MW,1.9817348
Clipstone 11Kv,10/11/2023 11:55:00,MW,1.9906871
Clipstone 11Kv,10/11/2023 12:00:00,MW,2.0456085
Clipstone 11Kv,10/11/2023 12:05:00,MW,2.0715526
Clipstone 11Kv,10/11/2023 12:10:00,MW,2.0788004
Clipstone 11Kv,10/11/2023 12:15:00,MW,2.0711586
Clipstone 11Kv,10/11/2023 12:20:00,MW,2.1216985
Clipstone 11Kv,10/11/2023 12:25:00,MW,2.1194901
Clipstone 11Kv,10/11/2023 12:30:00,MW,2.1157883
Clipstone 11Kv,10/11/2023 12:35:00,MW,2.0384992
Clipstone 11Kv,10/11/2023 12:40:00,MW,2.0635025000000002
Clipstone 11Kv,10/11/2023 12:45:00,MW,2.0863645
Clipstone 11Kv,10/11/2023 12:50:00,MW,2.0605128
Clipstone 11Kv,10/11/2023 12:55:00,MW,2.1136661
Clipstone 11Kv,10/11/2023 13:00:00,MW,2.0588802
Clipstone 11Kv,10/11/2023 13:05:00,MW,2.1335579
Clipstone 11Kv,10/11/2023 13:10:00,MW,2.1273125
Clipstone 11Kv,10/11/2023 13:15:00,MW,2.0240997
Clipstone 11Kv,10/11/2023 13:20:00,MW,2.0637497
Clipstone 11Kv,10/11/2023 13:25:00,MW,2.066985
Clipstone 11Kv,10/11/2023 13:30:00,MW,2.0171580000000002
Clipstone 11Kv,10/11/2023 13:35:00,MW,2.0599235
Clipstone 11Kv,10/11/2023 13:40:00,MW,2.0328542
Clipstone 11Kv,10/11/2023 13:45:00,MW,2.0333129999999997
Clipstone 11Kv,10/11/2023 13:50:00,MW,2.0320184
Clipstone 11Kv,10/11/2023 13:55:00,MW,2.0309287
Clipstone 11Kv,10/11/2023 14:00:00,MW,2.0753950999999997
Clipstone 11Kv,10/11/2023 14:05:00,MW,2.0434973
Clipstone 11Kv,10/11/2023 14:10:00,MW,1.996251
Clipstone 11Kv,10/11/2023 14:15:00,MW,1.9703111
Clipstone 11Kv,10/11/2023 14:20:00,MW,2.0150813
Clipstone 11Kv,10/11/2023 14:25:00,MW,2.0970129
Clipstone 11Kv,10/11/2023 14:30:00,MW,2.0969651000000002
Clipstone 11Kv,10/11/2023 14:35:00,MW,2.0996631
Clipstone 11Kv,10/11/2023 14:40:00,MW,2.1248666
Clipstone 11Kv,10/11/2023 14:45:00,MW,2.1291273
Clipstone 11Kv,10/11/2023 14:50:00,MW,2.1640489
Clipstone 11Kv,10/11/2023 14:55:00,MW,2.0970223
Clipstone 11Kv,10/11/2023 15:00:00,MW,2.1394547
Clipstone 11Kv,10/11/2023 15:05:00,MW,2.1467073
Clipstone 11Kv,10/11/2023 15:10:00,MW,2.1432454
Clipstone 11Kv,10/11/2023 15:15:00,MW,2.1666952
Clipstone 11Kv,10/11/2023 15:20:00,MW,2.1822338
Clipstone 11Kv,10/11/2023 15:25:00,MW,2.2017369
Clipstone 11Kv,10/11/2023 15:30:00,MW,2.2425829000000004
Clipstone 11Kv,10/11/2023 15:35:00,MW,2.2282656999999997
Clipstone 11Kv,10/11/2023 15:40:00,MW,2.2336779
Clipstone 11Kv,10/11/2023 15:45:00,MW,2.2416615
Clipstone 11Kv,10/11/2023 15:50:00,MW,2.3026529
Clipstone 11Kv,10/11/2023 15:55:00,MW,2.2806933000000003
Clipstone 11Kv,10/11/2023 16:00:00,MW,2.2414991
Clipstone 11Kv,10/11/2023 16:05:00,MW,2.2928908999999997
Clipstone 11Kv,10/11/2023 16:10:00,MW,2.3249779999999998
Clipstone 11Kv,10/11/2023 16:15:00,MW,2.3183002999999998
Clipstone 11Kv,10/11/2023 16:20:00,MW,2.3467979999999997
Clipstone 11Kv,10/11/2023 16:25:00,MW,2.3804238
Clipstone 11Kv,10/11/2023 16:30:00,MW,2.3745871
Clipstone 11Kv,10/11/2023 16:35:00,MW,2.4137793
Clipstone 11Kv,10/11/2023 16:40:00,MW,2.4709847
Clipstone 11Kv,10/11/2023 16:45:00,MW,2.5005903
Clipstone 11Kv,10/11/2023 16:50:00,MW,2.5281102
Clipstone 11Kv,10/11/2023 16:55:00,MW,2.6249219000000004
Clipstone 11Kv,10/11/2023 17:00:00,MW,2.6044387
Clipstone 11Kv,10/11/2023 17:05:00,MW,2.5963747
Clipstone 11Kv,10/11/2023 17:10:00,MW,2.6157795
Clipstone 11Kv,10/11/2023 17:15:00,MW,2.6162270000000003
Clipstone 11Kv,10/11/2023 17:20:00,MW,2.6631719
Clipstone 11Kv,10/11/2023 17:25:00,MW,2.693816
Clipstone 11Kv,10/11/2023 17:30:00,MW,2.6062214
Clipstone 11Kv,10/11/2023 17:35:00,MW,2.6059332
Clipstone 11Kv,10/11/2023 17:40:00,MW,2.6680719
Clipstone 11Kv,10/11/2023 17:45:00,MW,2.7405536
Clipstone 11Kv,10/11/2023 17:50:00,MW,2.7617916
Clipstone 11Kv,10/11/2023 17:55:00,MW,2.7846185
Clipstone 11Kv,10/11/2023 18:00:00,MW,2.8552954
Clipstone 11Kv,10/11/2023 18:05:00,MW,2.8580074
Clipstone 11Kv,10/11/2023 18:10:00,MW,2.8260807999999997
Clipstone 11Kv,10/11/2023 18:15:00,MW,2.6957628
Clipstone 11Kv,10/11/2023 18:20:00,MW,2.7371831999999996
Clipstone 11Kv,10/11/2023 18:25:00,MW,2.7166146
Clipstone 11Kv,10/11/2023 18:30:00,MW,2.6838948
Clipstone 11Kv,10/11/2023 18:35:00,MW,2.623107
Clipstone 11Kv,10/11/2023 18:40:00,MW,2.6208517000000002
Clipstone 11Kv,10/11/2023 18:45:00,MW,2.5525827
Clipstone 11Kv,10/11/2023 18:50:00,MW,2.5099027
Clipstone 11Kv,10/11/2023 18:55:00,MW,2.5029242
Clipstone 11Kv,10/11/2023 19:00:00,MW,2.5260732
Clipstone 11Kv,10/11/2023 19:05:00,MW,2.5471236
Clipstone 11Kv,10/11/2023 19:10:00,MW,2.5306362
Clipstone 11Kv,10/11/2023 19:15:00,MW,2.516629
Clipstone 11Kv,10/11/2023 19:20:00,MW,2.4710478
Clipstone 11Kv,10/11/2023 19:25:00,MW,2.5040621
Clipstone 11Kv,10/11/2023 19:30:00,MW,2.5209904
Clipstone 11Kv,10/11/2023 19:35:00,MW,2.4587396
Clipstone 11Kv,10/11/2023 19:40:00,MW,2.4806825000000003
Clipstone 11Kv,10/11/2023 19:45:00,MW,2.4358677
Clipstone 11Kv,10/11/2023 19:50:00,MW,2.4131443
Clipstone 11Kv,10/11/2023 19:55:00,MW,2.4513572000000003
Clipstone 11Kv,10/11/2023 20:00:00,MW,2.4870891999999998
Clipstone 11Kv,10/11/2023 20:05:00,MW,2.4099546
Clipstone 11Kv,10/11/2023 20:10:00,MW,2.3415269
Clipstone 11Kv,10/11/2023 20:15:00,MW,2.2800976000000004
Clipstone 11Kv,10/11/2023 20:20:00,MW,2.2896464
Clipstone 11Kv,10/11/2023 20:25:00,MW,2.3064394
Clipstone 11Kv,10/11/2023 20:30:00,MW,2.3243371
Clipstone 11Kv,10/11/2023 20:35:00,MW,2.3053264
Clipstone 11Kv,10/11/2023 20:40:00,MW,2.3173795999999998
Clipstone 11Kv,10/11/2023 20:45:00,MW,2.267255
Clipstone 11Kv,10/11/2023 20:50:00,MW,2.1923018
Clipstone 11Kv,10/11/2023 20:55:00,MW,2.175901
Clipstone 11Kv,10/11/2023 21:00:00,MW,2.1757213
Clipstone 11Kv,10/11/2023 21:05:00,MW,2.2240830000000003
Clipstone 11Kv,10/11/2023 21:10:00,MW,2.2094370999999997
Clipstone 11Kv,10/11/2023 21:15:00,MW,2.1542436
Clipstone 11Kv,10/11/2023 21:20:00,MW,2.1015536
Clipstone 11Kv,10/11/2023 21:25:00,MW,2.0721015
Clipstone 11Kv,10/11/2023 21:30:00,MW,2.0754726
Clipstone 11Kv,10/11/2023 21:35:00,MW,2.0814348
Clipstone 11Kv,10/11/2023 21:40:00,MW,2.0461894999999997
Clipstone 11Kv,10/11/2023 21:45:00,MW,2.00481926
Clipstone 11Kv,10/11/2023 21:50:00,MW,1.987596
Clipstone 11Kv,10/11/2023 21:55:00,MW,1.9592554
Clipstone 11Kv,10/11/2023 22:00:00,MW,1.94402025
Clipstone 11Kv,10/11/2023 22:05:00,MW,1.9798228999999998
Clipstone 11Kv,10/11/2023 22:10:00,MW,1.9310777
Clipstone 11Kv,10/11/2023 22:15:00,MW,1.8769368499999999
Clipstone 11Kv,10/11/2023 22:20:00,MW,1.8959806000000001
Clipstone 11Kv,10/11/2023 22:25:00,MW,1.82385958
Clipstone 11Kv,10/11/2023 22:30:00,MW,1.7643911600000002
Clipstone 11Kv,10/11/2023 22:35:00,MW,1.7414011299999999
Clipstone 11Kv,10/11/2023 22:40:00,MW,1.7361962000000002
Clipstone 11Kv,10/11/2023 22:45:00,MW,1.74355036
Clipstone 11Kv,10/11/2023 22:50:00,MW,1.7105523599999999
Clipstone 11Kv,10/11/2023 22:55:00,MW,1.67035084
Clipstone 11Kv,10/11/2023 23:00:00,MW,1.6229756
Clipstone 11Kv,10/11/2023 23:05:00,MW,1.5840044
Clipstone 11Kv,10/11/2023 23:10:00,MW,1.5748093
Clipstone 11Kv,10/11/2023 23:15:00,MW,1.5868266
Clipstone 11Kv,10/11/2023 23:20:00,MW,1.6052594
Clipstone 11Kv,10/11/2023 23:25:00,MW,1.6063743000000001
Clipstone 11Kv,10/11/2023 23:30:00,MW,1.6062596999999998
Clipstone 11Kv,10/11/2023 23:35:00,MW,1.61647126
Clipstone 11Kv,10/11/2023 23:40:00,MW,1.5962295599999998
Clipstone 11Kv,10/11/2023 23:45:00,MW,1.5692476
Clipstone 11Kv,10/11/2023 23:50:00,MW,1.5828748899999998
Clipstone 11Kv,10/11/2023 23:55:00,MW,1.55336494
